• Join FlightAware (Why Join?)
  • Login
  • US Flag 
12:31PM EDT


 

Airport Tracker/Info


-or-


 

Live Flight TrackerFlight Track Log ✈ N84NG ✈ 20-Aug-2013 ✈ KALB - KOCF

Flight Track Log - Related Links

Times and Time Zones

All times are in EDT time to prevent confusion due to time zone crossing. See the N84NG flight status page for this flight to view local times or setup timezone preferences in your user account.

Time Position Orientation Groundspeed Altitude Reporting Facility
EDT Latitude Longitude Course Direction KTS MPH feet Rate Location/Type
08:07AM 42.7714 -73.8092 326° Northwest 207 238 1,300  Level Boston Center
08:09AM 42.8664 -73.8961 326° Northwest 260 299 6,300 2,760 Climbing Boston Center
08:10AM 42.9194 -73.9739 313° West 265 305 9,300 2,640 Climbing Boston Center
08:11AM 42.9308 -74.0622 280° West 266 306 11,600 2,040 Climbing Boston Center
08:12AM 42.9039 -74.1778 252° West 277 319 13,500 1,800 Climbing Boston Center
08:13AM 42.8225 -74.1953 189° South 293 337 15,200 1,980 Climbing Boston Center
08:14AM 42.7122 -74.1836 176° South 333 383 17,500 2,100 Climbing Boston Center
08:15AM 42.6125 -74.1525 167° South 364 419 19,500 1,740 Climbing Boston Center
08:16AM 42.5233 -74.1275 168° South 371 427 21,100 1,620 Climbing Boston Center
08:17AM 42.4197 -74.0939 167° South 371 427 22,800 1,620 Climbing Boston Center
08:18AM 42.3139 -74.0600 167° South 377 434 24,400 1,500 Climbing Boston Center
08:19AM 42.2033 -74.0544 178° South 387 445 25,800 1,440 Climbing Boston Center
08:20AM 42.0986 -74.0936 196° South 392 451 27,300 1,500 Climbing Boston Center
08:21AM 41.9936 -74.1442 200° South 392 451 28,800 1,620 Climbing Boston Center
08:22AM 41.8867 -74.1914 198° South 405 466 30,600 1,800 Climbing Boston Center
08:23AM 41.6822 -74.2733 197° South 394 453 34,200 1,680 Climbing New York Center
08:24AM 41.5831 -74.3181 199° South 389 448 35,600 1,080 Climbing New York Center
08:25AM 41.4881 -74.3603 198° South 373 429 36,400 780 Climbing New York Center
08:26AM 41.3889 -74.4019 197° South 373 429 37,200 720 Climbing New York Center
08:27AM 41.2836 -74.4431 196° South 387 445 37,900 360 Climbing New York Center
08:28AM 41.1781 -74.4869 197° South 397 457 38,000  Climbing New York Center
08:29AM 41.0700 -74.5442 202° Southwest 403 464 38,000  Level New York Center
08:30AM 40.9775 -74.6353 217° Southwest 414 476 38,000  Level New York Center
08:31AM 40.8869 -74.7289 218° Southwest 419 482 38,000  Level New York Center
08:32AM 40.7919 -74.8275 218° Southwest 424 488 38,000  Level New York Center
08:33AM 40.6950 -74.9203 216° Southwest 430 495 38,000  Level New York Center
08:34AM 40.5997 -75.0186 218° Southwest 430 495 38,000  Level New York Center
08:35AM 40.5047 -75.1108 216° Southwest 430 495 38,000  Level New York Center
08:36AM 40.4094 -75.2058 217° Southwest 430 495 38,000  Level New York Center
08:37AM 40.3164 -75.2978 217° Southwest 430 495 38,000  Level New York Center
08:38AM 40.2169 -75.3892 215° Southwest 430 495 38,000  Level New York Center
08:39AM 40.1217 -75.4806 216° Southwest 430 495 38,000  Level New York Center
08:40AM 40.0261 -75.5744 217° Southwest 430 495 38,000  Level New York Center
08:41AM 39.9306 -75.6653 216° Southwest 430 495 38,000  Level New York Center
08:42AM 39.8531 -75.7761 228° Southwest 424 488 38,000  Level New York Center
08:43AM 39.7833 -75.8956 233° Southwest 418 481 38,000  Level New York Center
08:44AM 39.7114 -76.0117 231° Southwest 418 481 38,000  Level New York Center
08:47AM 39.5492 -76.2617 230° Southwest 413 475 38,000  Level Washington Center
08:48AM 39.4736 -76.3739 229° Southwest 413 475 38,000  Level Washington Center
08:49AM 39.4019 -76.4886 231° Southwest 418 481 38,000  Level Washington Center
08:50AM 39.3344 -76.5897 229° Southwest 418 481 38,000  Level Washington Center
08:51AM 39.2606 -76.7067 231° Southwest 423 487 38,000  Level Washington Center
08:52AM 39.1886 -76.8181 230° Southwest 423 487 38,000  Level Washington Center
08:53AM 39.1144 -76.9319 230° Southwest 423 487 38,000 240 Level Washington Center
08:54AM 39.0381 -77.0428 228° Southwest 423 487 38,500 480 Climbing Washington Center
08:55AM 38.9536 -77.1372 221° Southwest 416 479 39,000 480 Climbing Washington Center
08:56AM 38.8689 -77.2314 221° Southwest 411 473 39,500 480 Climbing Washington Center
08:57AM 38.7736 -77.3306 219° Southwest 406 467 40,000 240 Climbing Washington Center
08:58AM 38.6889 -77.4214 220° Southwest 406 467 40,000  Level Washington Center
08:59AM 38.6019 -77.5203 222° Southwest 411 473 40,000  Level Washington Center
09:00AM 38.5169 -77.6136 221° Southwest 411 473 40,000  Level Washington Center
09:01AM 38.4278 -77.7092 220° Southwest 416 479 40,000  Level Washington Center
09:02AM 38.3406 -77.8047 221° Southwest 416 479 40,000  Level Washington Center
09:03AM 38.2683 -77.8819 220° Southwest 416 479 40,000  Level Washington Center
09:04AM 38.1744 -77.9794 219° Southwest 416 479 40,000  Level Washington Center
09:05AM 38.0764 -78.0844 220° Southwest 416 479 40,000  Level Washington Center
09:06AM 37.9889 -78.1764 220° Southwest 411 473 40,000  Level Washington Center
09:07AM 37.9036 -78.2683 220° Southwest 406 467 40,000  Level Washington Center
09:08AM 37.8078 -78.3542 215° Southwest 419 482 40,000  Level Washington Center
09:09AM 37.7139 -78.4428 217° Southwest 424 488 40,000  Level Washington Center
09:10AM 37.6328 -78.5183 216° Southwest 424 488 40,000  Level Washington Center
09:11AM 37.5411 -78.6039 217° Southwest 424 488 40,000  Level Washington Center
09:12AM 37.4469 -78.6917 217° Southwest 424 488 40,000  Level Washington Center
09:13AM 37.3550 -78.7767 216° Southwest 424 488 40,000  Level Washington Center
09:14AM 37.2525 -78.8717 216° Southwest 424 488 40,000  Level Washington Center
09:15AM 37.1625 -78.9564 217° Southwest 424 488 40,000  Level Washington Center
09:16AM 37.0703 -79.0436 217° Southwest 424 488 40,000  Level Washington Center
09:17AM 36.9781 -79.1253 215° Southwest 424 488 40,000  Level Washington Center
09:18AM 36.8858 -79.2092 216° Southwest 419 482 40,000  Level Washington Center
09:19AM 36.8022 -79.2883 217° Southwest 419 482 40,000  Level Washington Center
09:20AM 36.7119 -79.3722 217° Southwest 419 482 40,000  Level Washington Center
09:21AM 36.6175 -79.4556 215° Southwest 419 482 40,000  Level Washington Center
09:22AM 36.5269 -79.5389 216° Southwest 419 482 40,000  Level Washington Center
09:23AM 36.4239 -79.6319 216° Southwest 419 482 40,000  Level Washington Center
09:24AM 36.3331 -79.7200 218° Southwest 419 482 40,000  Level Washington Center
09:26AM 36.1119 -79.9111 215° Southwest 415 478 40,000  Level Atlanta Center
09:27AM 36.0122 -79.9881 212° Southwest 415 478 40,000  Level Atlanta Center
09:28AM 35.9056 -80.0444 203° Southwest 415 478 40,000  Level Atlanta Center
09:29AM 35.8072 -80.0956 203° Southwest 420 483 40,000  Level Atlanta Center
09:30AM 35.6964 -80.1519 202° Southwest 427 491 40,000  Level Atlanta Center
09:31AM 35.5875 -80.2056 202° Southwest 432 497 40,000  Level Atlanta Center
09:32AM 35.4767 -80.2644 203° Southwest 432 497 40,000  Level Atlanta Center
09:34AM 35.2733 -80.3606 201° Southwest 441 507 40,000  Level Jacksonville Center
09:35AM 35.1761 -80.4117 203° Southwest 432 497 40,000  Level Jacksonville Center
09:36AM 35.0667 -80.4631 201° Southwest 432 497 40,000  Level Jacksonville Center
09:37AM 34.9572 -80.5192 203° Southwest 427 491 40,000  Level Jacksonville Center
09:38AM 34.8456 -80.5731 202° Southwest 432 497 40,000  Level Jacksonville Center
09:39AM 34.7258 -80.6369 204° Southwest 432 497 40,000  Level Jacksonville Center
09:40AM 34.6142 -80.6903 201° Southwest 432 497 40,000  Level Jacksonville Center
09:41AM 34.4961 -80.7461 201° Southwest 451 519 40,000  Level Jacksonville Center
09:42AM 34.3844 -80.8017 202° Southwest 440 506 40,000  Level Jacksonville Center
09:43AM 34.2769 -80.8519 201° Southwest 440 506 40,000  Level Jacksonville Center
09:44AM 34.1650 -80.9100 203° Southwest 433 498 40,000  Level Jacksonville Center
09:45AM 34.0511 -80.9625 201° Southwest 433 498 40,000  Level Jacksonville Center
09:46AM 33.9394 -81.0203 203° Southwest 438 504 40,000  Level Jacksonville Center
09:47AM 33.8378 -81.0647 200° South 443 510 40,000  Level Jacksonville Center
09:48AM 33.7114 -81.1325 204° Southwest 443 510 40,000  Level Jacksonville Center
09:49AM 33.5953 -81.1869 201° Southwest 448 516 40,000  Level Jacksonville Center
09:50AM 33.4814 -81.2439 203° Southwest 453 521 40,000  Level Jacksonville Center
09:51AM 33.3650 -81.2983 201° Southwest 453 521 40,000  Level Jacksonville Center
09:52AM 33.2511 -81.3550 203° Southwest 453 521 40,000  Level Jacksonville Center
09:53AM 33.1350 -81.4142 203° Southwest 453 521 40,000  Level Jacksonville Center
09:54AM 33.0167 -81.4706 202° Southwest 453 521 40,000  Level Jacksonville Center
09:55AM 32.9022 -81.5269 202° Southwest 453 521 40,000  Level Jacksonville Center
09:56AM 32.7964 -81.5778 202° Southwest 458 527 40,000  Level Jacksonville Center
09:57AM 32.6800 -81.6214 198° South 453 521 40,000  Level Jacksonville Center
09:58AM 32.5550 -81.6503 191° South 445 512 40,000  Level Jacksonville Center
09:59AM 32.4197 -81.6842 192° South 456 525 40,000  Level Jacksonville Center
10:00AM 32.2947 -81.7106 190° South 461 531 40,000  Level Jacksonville Center
10:01AM 32.1717 -81.7389 191° South 461 531 40,000 -480 Level Jacksonville Center
10:02AM 32.0633 -81.7650 192° South 449 517 39,100 -1,320 Descending Jacksonville Center
10:03AM 31.9258 -81.7983 192° South 454 522 37,400 -1,800 Descending Jacksonville Center
10:04AM 31.8008 -81.8219 189° South 454 522 35,500 -1,920 Descending Jacksonville Center
10:05AM 31.6800 -81.8478 190° South 446 513 33,600 -1,920 Descending Jacksonville Center
10:06AM 31.5694 -81.8708 190° South 451 519 31,700 -1,800 Descending Jacksonville Center
10:07AM 31.4381 -81.8992 190° South 446 513 30,000 -900 Descending Jacksonville Center
10:08AM 31.3319 -81.9244 192° South 440 506 30,000 -300 Level Jacksonville Center
10:09AM 31.2150 -81.9500 191° South 445 512 29,500 -780 Descending Jacksonville Center
10:10AM 31.1006 -81.9731 190° South 433 498 28,500 -1,320 Descending Jacksonville Center
10:11AM 30.9878 -81.9983 191° South 422 486 26,900 -1,680 Descending Jacksonville Center
10:12AM 30.8733 -82.0236 191° South 422 486 25,200 -1,500 Descending Jacksonville Center
10:13AM 30.7606 -82.0464 190° South 422 486 24,000 -600 Descending Jacksonville Center
10:14AM 30.6481 -82.0717 191° South 417 480 24,000  Level Jacksonville Center
10:15AM 30.5231 -82.0944 189° South 412 474 24,000  Level Jacksonville Center
10:16AM 30.4083 -82.1169 190° South 412 474 24,000  Level Jacksonville Center
10:17AM 30.2936 -82.1419 191° South 417 480 24,000 -300 Level Jacksonville Center
10:18AM 30.1850 -82.1669 191° South 411 473 23,500 -780 Descending Jacksonville Center
10:19AM 30.0747 -82.1917 191° South 411 473 22,500 -1,200 Descending Jacksonville Center
10:20AM 29.9683 -82.2164 191° South 411 473 21,200 -780 Descending Jacksonville Center
10:21AM 29.8639 -82.2386 190° South 401 461 21,000 -180 Descending Jacksonville Center
10:22AM 29.7742 -82.2561 190° South 401 461 20,900 -780 Descending Jacksonville Center
10:23AM 29.6450 -82.2689 185° South 401 461 19,500 -1,500 Descending Jacksonville Center
10:24AM 29.5364 -82.2600 176° South 396 456 17,900 -1,800 Descending Jacksonville Center
10:24AM 29.4569 -82.2533 176° South 375 432 16,300 -2,220 Descending Jacksonville Center
10:25AM 29.3525 -82.2444 176° South 357 411 14,000 -2,280 Descending Jacksonville Center
10:26AM 29.2772 -82.2164 162° South 276 318 11,700 -2,580 Descending Jacksonville Center
10:27AM 29.2664 -82.1331 98° East 261 300 8,800 -3,060 Descending Jacksonville Center
10:28AM 29.2806 -82.0475 79° East 256 295 5,500 -2,820 Descending Jacksonville Center
10:29AM 29.2903 -81.9686 82° East 248 285 3,100 -1,200 Descending Jacksonville Center
10:31AM 29.3294 -81.9136 51° Northeast 209 241 3,000  Descending Jacksonville Center
10:31AM 29.3653 -81.9467 321° Northwest 240 276 3,100 -180 Climbing Jacksonville Center
10:32AM 29.3617 -82.0228 267° West 229 264 2,700 -540 Descending Jacksonville Center
10:33AM 29.3581 -82.0992 267° West 239 275 2,100 -300 Descending Jacksonville Center
10:34AM 29.3564 -82.1658 268° West 216 249 2,200  Climbing Jacksonville Center
10:35AM 29.3336 -82.2256 246° West 211 243 2,200 -180 Level Jacksonville Center
10:37AM 29.2836 -82.2236 178° South 182 209 1,900 -300 Descending Jacksonville Center
10:38AM 29.2356 -82.2261 183° South 148 170 1,600 -660 Descending Jacksonville Center
10:39AM 29.1958 -82.2264 180° South 134 154 600 -1,020 Descending Jacksonville Center